Location: *
(13.4443°S, 72.3095°W)
Time: 16:12:21
(UTC+00:00)

Daily predictions for brighter satellites

Satellite Brightness Start Highest point End
(mag) Time Altitude Azimuth Time Altitude Azimuth Time Altitude Azimuth
Cosmos 2278 3.9 22:53:53 10° SSW 22:59:37 84° WNW 23:05:19 10° NNE
Cosmos 1980 Rocket 2.3 22:57:14 10° S 23:02:49 56° ESE 23:08:20 10° NNE
Cosmos 1802 Rocket 4.4 23:08:56 10° SSE 23:15:00 44° E 23:21:02 10° NNE
Cosmos 44 3.7 23:12:57 10° SSW 23:18:17 80° WNW 23:23:40 10° NNE
Cosmos 1300 4.3 23:17:13 10° NE 23:19:41 17° E 23:20:45 15° ESE
YAOGAN 6 4.0 23:19:07 13° SE 23:21:17 21° E 23:24:06 10° NNE
Cosmos 1833 4.2 23:15:49 10° NNW 23:21:27 87° ENE 23:27:05 10° SSE
YAOGAN 1 3.3 23:19:05 10° SE 23:22:58 31° E 23:26:47 10° NNE
GPS 2-14 Rocket1 3.9 23:19:35 10° WSW 23:23:07 28° S 23:25:29 16° SE
Aurora 2 Rocket 3.9 23:20:21 10° W 23:23:25 30° NNW 23:27:16 10° NE
Envisat 3.3 23:19:25 10° SSE 23:24:16 44° E 23:29:06 10° N
Cosmos 2322 Rocket 3.4 23:23:12 10° SSE 23:27:04 18° ESE 23:30:54 10° ENE
Cosmos 2056 Rocket 4.5 23:22:49 10° NNE 23:27:21 28° E 23:30:32 16° SE
SL-16 R/B 3.1 23:27:09 10° SSE 23:31:42 24° ESE 23:36:13 10° NE
CZ-2C R/B 3.7 23:27:42 10° NNE 23:32:28 80° ESE 23:37:15 10° S
NOAA 12 4.3 23:30:11 10° S 23:35:31 78° WSW 23:40:49 10° NNW
Maqsat-H 2.5 23:32:50 10° WNW 23:36:11 42° N 23:40:16 14° ENE
Cosmos 1703 3.3 23:40:07 10° S 23:44:02 55° E 23:47:55 10° NNE
ARIANE 5 R/B 4.4 15:25:03 10° WNW 23:46:24 52° NNW 23:52:30 13° ENE
SL-08 R/B 4.5 23:41:32 10° S 23:47:42 58° E 23:53:42 10° NNE
Stardust Del rocket 4.4 23:44:20 10° WSW 23:48:05 23° S 23:48:37 22° SSE
OAO 3 Rocket 4.2 23:44:17 10° NNW 23:48:26 30° NE 23:49:53 25° ENE
Cosmos 1624 Rocket 4.0 23:47:57 10° N 23:53:01 57° ENE 23:55:44 27° SSE
SL-4 R/B 2.6 23:48:59 10° SW 23:53:20 66° NW 23:57:58 10° NNE
CZ-4 R/B 2.0 23:49:22 10° S 23:53:26 58° WSW 23:57:33 10° NNW
